Regional Weather Roundup
Issued by NWS Sioux Falls, SD

Home | Current Version | Previous Version | Text Only | Print | Product List | Glossary Off
Versions: 1 2 3 4 5 6 7 8 9 10 11 12 13 14 15 16 17 18 19 20 21 22 23 24 25 26 27 28 29 30 31 32 33 34 35 36 37 38 39 40 41 42 43 44 45 46 47 48 49 50

000
ASUS43 KFSD 142002
RWRFSD

WEATHER ROUNDUP FOR SE SOUTH DAKOTA/SW MINNESOTA/NW IOWA
NATIONAL WEATHER SERVICE SIOUX FALLS SD
300 PM CDT SUN SEP 14 2014

NOTE: "FAIR" INDICATES FEW OR NO CLOUDS BELOW 12,000 FEET WITH NO
SIGNIFICANT WEATHER AND OR OBSTRUCTIONS TO VISIBILITY.


SDZ038>040-050-052>070-142100-
SOUTHEAST SOUTH DAKOTA

CITY           SKY/WX    TMP DP  RH WIND       PRES   REMARKS
CHAMBERLAIN    CLOUDY    58  41  51 E3        30.13F
HURON          CLOUDY    58  39  49 NE5       30.14F
MADISON        MOCLDY    59  39  47 SW3       30.14F
MITCHELL       CLOUDY    60  44  55 N7        30.14F
SIOUX FALLS    CLOUDY    64  41  42 CALM      30.12F
WINNER         CLOUDY    62  44  51 E12       30.11F
YANKTON        MOSUNNY   64  45  48 E3        30.11F
$$

MNZ071-072-080-081-089-090-097-098-142100-
SOUTHWEST MINNESOTA

CITY           SKY/WX    TMP DP  RH WIND       PRES   REMARKS
FAIRMONT       CLOUDY    64  43  45 S6        30.13F
JACKSON        CLOUDY    64  41  42 S6        30.13F
LUVERNE        CLOUDY    64  41  42 N5        30.12F
MARSHALL       CLOUDY    61  37  41 NW8       30.12F
MONTEVIDEO     CLOUDY    64  45  48 NW6       30.14F
PIPESTONE      PTSUNNY   63  37  39 NE3       30.12F
REDWOOD FALLS  CLOUDY    61  39  44 NW9       30.12F
TRACY          PTSUNNY   64  42  44 CALM      30.13F
WINDOM         PTSUNNY   64  41  42 W5        30.12F
WORTHINGTON    CLOUDY    64  41  42 CALM      30.13F
$$

IAZ001>003-012>014-020>022-031-032-NEZ013-014-SDZ071-142100-
NORTHWEST IOWA

CITY           SKY/WX    TMP DP  RH WIND       PRES   REMARKS
CHEROKEE       MOSUNNY   67  51  57 S8        30.12F
DENISON        MOSUNNY   66  50  55 VRB3      30.12F
ESTHERVILLE    PTSUNNY   65  48  54 S10       30.13F
LE MARS        MOSUNNY   64  50  59 VRB7      30.13F
ORANGE CITY    PTSUNNY   64  48  55 CALM      30.13F
SHELDON        MOSUNNY   61  48  63 VRB5      30.12F
SIOUX CITY     MOSUNNY   68  49  50 VRB3      30.12F
SPENCER        PTSUNNY   61  49  64 SW7       30.13F
STORM LAKE     SUNNY     66  54  63 SW6       30.13F
$$

ABBREVIATIONS USED IN REMARKS
   TC - TEMPERATURE IN CELSIUS
  WCI - WIND CHILL INDEX
   HX - HEAT INDEX
  VSB - VISIBILITY



USA.gov is the U.S. government's official web portal to all federal, state and local government web resources and services.